Flag for Norway Weather past 2 weeks in Farsund, Norway

Now
46 °F

Cool.


Feels Like: 42 °F
Forecast: 40 / 47 °F
Wind: 9 mph from South

Location: Lista Fyr

Current Time: Apr 25, 2015 at 3:35:37 PM

Latest Report: Apr 25, 2015 at 3:00 PM


Visibility: N/A

Pressure: 29.41 "Hg

Humidity: 96%

Dew point: 45 °F

Location of FarsundLocation

Historic Weather in Farsund — Graph

°F

Farsund temperature yesterday

Maximum temperature yesterday: 47 °F (at 1:00 PM)
Minimum temperature yesterday: 43 °F (at 6:00 AM)
Average temperature yesterday: 45 °F

Past Weeks' High & Low Weather Summary

 TemperatureHumidityPressure
High57 °F (Apr 20, 9:00 AM)100% (Apr 11, 3:00 AM)30.44 "Hg (Apr 11, 3:00 AM)
Low38 °F (Apr 17, 6:00 AM)42% (Apr 17, 11:00 AM)29.41 "Hg (Apr 25, 12:00 PM)
Average44 °F81%30.03 "Hg
* Reported Apr 10 2:00 PM — Apr 25 2:00 PM, Farsund, Weather by CustomWeather, © 2015

Note: Actual official high and low records may vary slightly from our data, if they occured in-between our weather recording intervals... More about our weather records

Advertising

Farsund weather history for previous 24 hours

 ConditionsComfort  
Time TempWeatherWind HumidityBarometerVisibility
2:00 PM
Sat, Apr 25
47 °FFog.10 mph96%29.41 "Hg1 mi
1:00 PM46 °FCool.9 mph96%29.41 "HgN/A
12:00 PM46 °FCool.9 mph98%29.41 "HgN/A
11:00 AM45 °FFog.7 mph98%29.44 "Hg1 mi
10:00 AM45 °FCool.5 mph98%29.44 "HgN/A
9:00 AM45 °FCool.7 mph98%29.44 "HgN/A
8:00 AM44 °FLight rain. Overcast.8 mph99%29.44 "Hg1 mi
7:00 AM44 °FQuite cool.12 mph99%29.44 "HgN/A
6:00 AM44 °FQuite cool.10 mph98%29.44 "HgN/A
5:00 AM44 °FQuite cool.9 mph98%29.47 "HgN/A
4:00 AM44 °FQuite cool.6 mph97%29.53 "HgN/A
3:00 AM44 °FQuite cool.5 mph97%29.55 "HgN/A
1:00 AM44 °FQuite cool.6 mph98%29.59 "HgN/A
12:00 AM44 °FQuite cool.5 mph97%29.59 "HgN/A
10:00 PM
Fri, Apr 24
44 °FQuite cool.6 mph96%29.62 "HgN/A
9:00 PM44 °FQuite cool.6 mph91%29.63 "HgN/A
8:00 PM45 °FFog.6 mph92%29.65 "Hg4 mi
7:00 PM45 °FCool.6 mph93%29.67 "HgN/A
6:00 PM46 °FCool.6 mph93%29.69 "HgN/A
5:00 PM46 °FCool.5 mph92%29.70 "HgN/A
4:00 PM46 °FCool.3 mph87%29.73 "HgN/A
3:00 PM47 °FCool.3 mph86%29.75 "HgN/A
Weather by CustomWeather, © 2015

See weather overviewHow to use our weather pages